Weather History for KAQO - December, 2012

Change the Weather History Date:

Saturday, December 15, 2012

  Actual Average (KBMQ) Record (KBMQ)
Temperature  
Mean Temperature 65 °F -  
Max Temperature 75 °F 57 °F 75 °F (2006)
Min Temperature 55 °F 35 °F 25 °F (2004)
Growing Degree Days 15 (Base 50)    
Moisture  
Dew Point 47 °F    
Average Humidity 62    
Maximum Humidity 100    
Minimum Humidity 23    
Precipitation  
Precipitation 0.00 in - - ()
Sea Level Pressure  
Sea Level Pressure 29.95 in    
Wind  
Wind Speed 2 mph (WSW)    
Max Wind Speed 8 mph    
Max Gust Speed -    
Visibility 10 miles    
Events      
Averages and records for this station are not official NWS values.
T = Trace of Precipitation, MM = Missing Value Source: NWS Daily Summary

Daily Weather History Graph

Daily Weather History Graph

Search for Another Location

Airport or City:

Trip Planner

Search our weather history database for the weather conditions in past years. The results will help you decide how hot, cold, wet, or windy it might be!

Date:

Astronomy

Dec. 15, 2012 Rise Set
Actual Time 7:25 AM CST 5:35 PM CST
Civil Twilight 6:58 AM CST 6:01 PM CST
Nautical Twilight 6:28 AM CST 6:31 PM CST
Astronomical Twilight 5:58 AM CST 7:01 PM CST
Moon 9:25 AM CST (12/15) 8:32 PM CST (12/15)
Length of Visible Light 11h 03m
Length of Day
10h 09m
Waxing Crescent, 8% of the Moon is Illuminated
Dec 15
Waxing Crescent
Dec 19
First Quarter
Dec 28
Full
Jan 4
Last Quarter
Jan 11
New

Hourly Weather History & Observations

Time (CST) Temp. Dew Point Humidity Pressure Visibility Wind Dir Wind Speed Gust Speed Precip Events Conditions
12:15 AM 64.4 °F 64.4 °F 100% 29.95 in 10.0 mi Calm Calm - N/A   Mostly Cloudy
12:35 AM 64.4 °F 62.6 °F 94% 29.96 in 10.0 mi NNW 8.1 mph - N/A   Overcast
12:55 AM 64.4 °F 60.8 °F 88% 29.96 in 10.0 mi Calm Calm - N/A   Overcast
1:15 AM 62.6 °F 60.8 °F 94% 29.96 in 10.0 mi Calm Calm - N/A   Overcast
1:35 AM 62.6 °F 60.8 °F 94% 29.97 in 10.0 mi Calm Calm - N/A   Overcast
1:55 AM 62.6 °F 60.8 °F 94% 29.96 in 10.0 mi Calm Calm - N/A   Overcast
2:15 AM 62.6 °F 60.8 °F 94% 29.97 in 9.0 mi SW 3.5 mph - N/A   Overcast
2:35 AM 62.6 °F 60.8 °F 94% 29.97 in 10.0 mi Calm Calm - N/A   Overcast
2:55 AM 62.6 °F 60.8 °F 94% 29.97 in 10.0 mi Calm Calm - N/A   Overcast
3:15 AM 62.6 °F 60.8 °F 94% 29.97 in 10.0 mi Calm Calm - N/A   Overcast
3:35 AM 62.6 °F 59.0 °F 88% 29.97 in 10.0 mi Calm Calm - N/A   Mostly Cloudy
3:55 AM 60.8 °F 57.2 °F 88% 29.97 in 10.0 mi Calm Calm - N/A   Mostly Cloudy
4:15 AM 60.8 °F 55.4 °F 82% 29.96 in 10.0 mi West 3.5 mph - N/A   Mostly Cloudy
4:35 AM 60.8 °F 55.4 °F 82% 29.97 in 10.0 mi WNW 3.5 mph - N/A   Overcast
4:55 AM 60.8 °F 53.6 °F 77% 29.97 in 10.0 mi Calm Calm - N/A   Overcast
5:15 AM 59.0 °F 53.6 °F 82% 29.97 in 10.0 mi Calm Calm - N/A   Overcast
5:35 AM 57.2 °F 53.6 °F 88% 29.97 in 10.0 mi Calm Calm - N/A   Mostly Cloudy
5:55 AM 59.0 °F 53.6 °F 82% 29.97 in 10.0 mi Calm Calm - N/A   Overcast
6:15 AM 57.2 °F 55.4 °F 94% 29.97 in 10.0 mi Calm Calm - N/A   Mostly Cloudy
6:35 AM 55.4 °F 53.6 °F 94% 29.98 in 10.0 mi Calm Calm - N/A   Partly Cloudy
6:55 AM 55.4 °F 51.8 °F 88% 29.99 in 10.0 mi Calm Calm - N/A   Mostly Cloudy
7:15 AM 55.4 °F 53.6 °F 94% 29.98 in 10.0 mi Calm Calm - N/A   Overcast
7:35 AM 55.4 °F 51.8 °F 88% 29.98 in 10.0 mi Calm Calm - N/A   Mostly Cloudy
7:55 AM 55.4 °F 50.0 °F 82% 29.99 in 10.0 mi Calm Calm - N/A   Mostly Cloudy
8:15 AM 55.4 °F 50.0 °F 82% 30.00 in 10.0 mi Calm Calm - N/A   Overcast
8:35 AM 57.2 °F 50.0 °F 77% 30.00 in 10.0 mi Calm Calm - N/A   Overcast
8:55 AM 59.0 °F 50.0 °F 72% 30.01 in 10.0 mi Calm Calm - N/A   Overcast
9:15 AM 59.0 °F 50.0 °F 72% 30.01 in 10.0 mi Calm Calm - N/A   Mostly Cloudy
9:35 AM 60.8 °F 50.0 °F 68% 30.02 in 10.0 mi Calm Calm - N/A   Partly Cloudy
9:55 AM 62.6 °F 44.6 °F 52% 30.02 in 10.0 mi Calm Calm - N/A   Mostly Cloudy
10:15 AM 62.6 °F 42.8 °F 48% 30.02 in 10.0 mi WNW 3.5 mph - N/A   Scattered Clouds
10:35 AM 64.4 °F 39.2 °F 40% 30.01 in 10.0 mi Calm Calm - N/A   Partly Cloudy
10:55 AM 64.4 °F 35.6 °F 34% 30.02 in 10.0 mi West 3.5 mph - N/A   Scattered Clouds
11:15 AM 66.2 °F 37.4 °F 35% 30.01 in 10.0 mi WSW 5.8 mph - N/A   Mostly Cloudy
11:35 AM 66.2 °F 39.2 °F 37% 30.01 in 10.0 mi WSW 4.6 mph - N/A   Overcast
11:55 AM 68.0 °F 35.6 °F 30% 30.00 in 10.0 mi SW 3.5 mph - N/A   Overcast
12:15 PM 69.8 °F 33.8 °F 27% 29.99 in 10.0 mi WNW 4.6 mph - N/A   Mostly Cloudy
12:35 PM 71.6 °F 33.8 °F 25% 29.97 in 10.0 mi NNW 4.6 mph - N/A   Partly Cloudy
12:55 PM 71.6 °F 33.8 °F 25% 29.96 in 10.0 mi NW 3.5 mph - N/A   Mostly Cloudy
1:15 PM 71.6 °F 33.8 °F 25% 29.93 in 10.0 mi NNW 4.6 mph - N/A   Mostly Cloudy
1:35 PM 73.4 °F 33.8 °F 23% 29.92 in 10.0 mi NW 3.5 mph - N/A   Mostly Cloudy
1:55 PM 73.4 °F 35.6 °F 25% 29.92 in 10.0 mi WSW 4.6 mph - N/A   Scattered Clouds
2:15 PM 75.2 °F 35.6 °F 24% 29.91 in 10.0 mi ESE 3.5 mph - N/A   Scattered Clouds
2:35 PM 75.2 °F 37.4 °F 25% 29.90 in 10.0 mi SW 5.8 mph - N/A   Partly Cloudy
2:55 PM 73.4 °F 37.4 °F 27% 29.89 in 10.0 mi SSE 3.5 mph - N/A   Clear
3:15 PM 75.2 °F 39.2 °F 27% 29.90 in 10.0 mi Calm Calm - N/A   Clear
3:35 PM 73.4 °F 39.2 °F 29% 29.90 in 10.0 mi SSW 4.6 mph - N/A   Clear
3:55 PM 73.4 °F 39.2 °F 29% 29.90 in 10.0 mi SSW 5.8 mph - N/A   Clear
4:15 PM 73.4 °F 41.0 °F 31% 29.90 in 10.0 mi SSE 4.6 mph - N/A   Clear
4:35 PM 73.4 °F 42.8 °F 33% 29.90 in 10.0 mi South 3.5 mph - N/A   Clear
4:55 PM 69.8 °F 42.8 °F 38% 29.91 in 10.0 mi SE 5.8 mph - N/A   Clear
5:15 PM 68.0 °F 44.6 °F 43% 29.91 in 10.0 mi SE 4.6 mph - N/A   Clear
5:35 PM 66.2 °F 44.6 °F 46% 29.91 in 10.0 mi Calm Calm - N/A   Clear
5:55 PM 64.4 °F 44.6 °F 49% 29.91 in 10.0 mi Calm Calm - N/A   Clear
6:15 PM 62.6 °F 44.6 °F 52% 29.90 in 10.0 mi ESE 3.5 mph - N/A   Clear
6:35 PM 62.6 °F 44.6 °F 52% 29.91 in 10.0 mi ESE 3.5 mph - N/A   Clear
6:55 PM 62.6 °F 44.6 °F 52% 29.91 in 10.0 mi Calm Calm - N/A   Clear
7:15 PM 62.6 °F 44.6 °F 52% 29.92 in 10.0 mi Calm Calm - N/A   Clear
7:35 PM 60.8 °F 44.6 °F 55% 29.92 in 10.0 mi Calm Calm - N/A   Clear
7:55 PM 60.8 °F 44.6 °F 55% 29.93 in 10.0 mi Calm Calm - N/A   Clear
8:15 PM 59.0 °F 44.6 °F 59% 29.92 in 10.0 mi Calm Calm - N/A   Clear
8:35 PM 57.2 °F 44.6 °F 63% 29.92 in 10.0 mi Calm Calm - N/A   Clear
8:55 PM 57.2 °F 44.6 °F 63% 29.92 in 10.0 mi Calm Calm - N/A   Clear
9:15 PM 57.2 °F 46.4 °F 67% 29.93 in 10.0 mi Calm Calm - N/A   Clear
9:35 PM 55.4 °F 46.4 °F 72% 29.93 in 10.0 mi Calm Calm - N/A   Clear
9:55 PM 55.4 °F 44.6 °F 67% 29.92 in 10.0 mi Calm Calm - N/A   Clear
10:15 PM 57.2 °F 44.6 °F 63% 29.92 in 10.0 mi Calm Calm - N/A   Clear
10:35 PM 55.4 °F 44.6 °F 67% 29.93 in 10.0 mi Calm Calm - N/A   Clear
10:55 PM 57.2 °F 44.6 °F 63% 29.92 in 10.0 mi North 4.6 mph - N/A   Clear
11:15 PM 57.2 °F 44.6 °F 63% 29.91 in 10.0 mi North 3.5 mph - N/A   Clear
11:35 PM 57.2 °F 44.6 °F 63% 29.90 in 10.0 mi Calm Calm - N/A   Clear
11:55 PM 55.4 °F 44.6 °F 67% 29.89 in 10.0 mi Calm Calm - N/A   Clear